Location: Gardner
(38.8108°N, 94.9272°W)
Time: 01:04:54
(UTC-05:00)

Envisat - Visible Passes

Search period start: 16 August 2018 00:00
Search period end: 26 August 2018 00:00
Orbit: 764 x 766 km, 98.2° (Epoch: 15 August)

Date Brightness Start Highest point End Pass type
(mag) Time Alt. Az. Time Alt. Az. Time Alt. Az.
16 Aug 5.7 21:48:00 10° SW 21:50:58 15° W 21:53:56 10° NW visible
17 Aug 4.6 21:09:19 10° SSW 21:13:56 35° W 21:18:35 10° NNW visible
18 Aug 3.2 20:32:03 10° S 20:37:07 82° WSW 20:42:14 10° NNW visible
19 Aug 5.5 21:36:02 10° SW 21:39:41 20° W 21:43:21 10° NW visible
20 Aug 4.2 20:57:53 10° S 21:02:44 45° W 21:07:36 10° NNW visible
21 Aug 6.0 22:04:34 10° W 22:05:32 10° W 22:06:30 10° WNW visible
22 Aug 5.2 21:24:17 10° SSW 21:28:26 25° W 21:32:36 10° NW visible
23 Aug 3.7 20:46:33 10° S 20:51:32 58° W 20:56:32 10° NNW visible
24 Aug 5.8 21:51:39 10° WSW 21:54:14 14° W 21:56:50 10° WNW visible
25 Aug 4.8 21:12:41 10° SSW 21:17:11 32° W 21:21:43 10° NNW visible
